Flag for Germany Weather past 2 weeks in Limburg an der Lahn, Hesse, Germany

Now
45 °F

Scattered clouds.


Feels Like: 38 °F
Forecast: 30 / 58 °F
Wind: 14 mph from Northwest

Location: Hessen

Current Time: Apr 28, 2015 at 2:04:24 PM

Latest Report: Apr 28, 2015 at 1:20 PM


Visibility: N/A

Pressure: 29.98 "Hg

Humidity: 57%

Dew point: 30 °F

Location of Limburg an der LahnLocation

Historic Weather in Limburg an der Lahn — Graph

°F

Limburg an der Lahn temperature yesterday

Maximum temperature yesterday: 48 °F (at 7:50 AM)
Minimum temperature yesterday: 39 °F (at 6:50 PM)
Average temperature yesterday: 43 °F

Past Weeks' High & Low Weather Summary

 TemperatureHumidityPressure
High70 °F (Apr 15, 3:50 PM)100% (Apr 25, 12:20 PM)30.42 "Hg (Apr 25, 12:20 PM)
Low32 °F (Apr 28, 6:50 AM)30% (Apr 21, 1:20 PM)29.59 "Hg (Apr 27, 7:50 AM)
Average53 °F60%30.07 "Hg
* Reported Apr 13 12:20 PM — Apr 28 12:50 PM, Limburg an der Lahn, Weather by CustomWeather, © 2015

Note: Actual official high and low records may vary slightly from our data, if they occured in-between our weather recording intervals... More about our weather records

Advertising

Limburg an der Lahn weather history for previous 24 hours

 ConditionsComfort  
Time TempWeatherWind HumidityBarometerVisibility
12:50 PM
Tue, Apr 28
46 °FPassing clouds.13 mph53%29.95 "HgN/A
12:20 PM45 °FPassing clouds.12 mph61%29.95 "HgN/A
11:50 AM43 °FPassing clouds.13 mph71%29.95 "HgN/A
11:20 AM43 °FScattered clouds.14 mph76%29.95 "HgN/A
10:50 AM41 °FScattered clouds.15 mph87%29.92 "HgN/A
10:20 AM41 °FBroken clouds.15 mph87%29.92 "HgN/A
9:50 AM39 °FScattered clouds.10 mph93%29.92 "Hg5 mi
9:20 AM37 °FLight fog.8 mph100%29.89 "Hg5 mi
8:50 AM36 °FChilly.7 mph100%29.89 "Hg5 mi
8:20 AM34 °FFog.7 mph100%29.89 "Hg1 mi
7:50 AM36 °FFog.6 mph100%29.86 "Hg1 mi
7:20 AM34 °FChilly.5 mph100%29.86 "Hg5 mi
6:50 AM32 °FFog.7 mph100%29.83 "Hg0 mi
9:50 PM
Mon, Apr 27
39 °FPartly cloudy.12 mph100%29.74 "HgN/A
9:20 PM39 °FBroken clouds.14 mph100%29.74 "Hg5 mi
8:50 PM39 °FLight rain. Broken clouds.14 mph100%29.71 "Hg4 mi
8:20 PM39 °FLight rain. Broken clouds.12 mph100%29.71 "Hg2 mi
7:50 PM39 °FLight rain. Fog.10 mph100%29.68 "Hg1 mi
7:20 PM39 °FLight rain. More clouds than sun.12 mph100%29.68 "Hg2 mi
6:50 PM39 °FLight rain. More clouds than sun.13 mph100%29.68 "Hg2 mi
6:20 PM41 °FLight rain. More clouds than sun.14 mph100%29.68 "Hg2 mi
5:50 PM41 °FLight rain. More clouds than sun.14 mph100%29.68 "Hg1 mi
5:20 PM41 °FLight rain. More clouds than sun.15 mph100%29.68 "Hg1 mi
4:50 PM41 °FFog.16 mph100%29.68 "Hg1 mi
4:20 PM41 °FLight rain. More clouds than sun.14 mph100%29.68 "Hg1 mi
3:50 PM43 °FLight rain. More clouds than sun.15 mph100%29.68 "Hg2 mi
3:20 PM43 °FRain. Fog.14 mph100%29.68 "Hg0 mi
2:50 PM43 °FRain. Fog.14 mph100%29.68 "Hg1 mi
2:20 PM45 °FRain. Fog.13 mph100%29.68 "Hg0 mi
Weather by CustomWeather, © 2015

See weather overviewHow to use our weather pages